Wind_Speed
3 7 9 11 13 15 16 19 13 3 5 11 10 10 9 8 7 6 3 3 2 5 7 10 11 14 18 17 14 12 9 9 12 15 15 15 13 12 13 14 14 14 14 15 17 18 19 22 24 23 23 24 24 26 27 27 28 30 30 30 33 36 33 28 25 24 24 24 24 25 26 25 27 30 33 33 33 32 29 25 21 19 19 20 19 19
3 8 13 12 12 13 15 16 11 4 7 10 9 8 8 10 7 4 4 2 3 4 6 6 9 13 16 17 15 13 11 11 14 17 17 18 16 13 14 17 15 13 12 13 13 14 17 21 24 23 23 23 24 26 29 29 30 32 31 30 33 33 32 32 30 26 25 25 23 23 25 25 24 27 33 36 35 36 35 31 26 21 20 20 21 21
3 6 8 4 3 9 11 10 9 8 8 8 7 7 8 8 5 3 3 2 3 4 5 5 9 12 15 18 17 13 12 12 15 17 17 17 16 15 15 15 14 13 13 13 13 14 15 18 22 23 23 25 28 27 28 29 30 31 31 31 31 30 32 35 34 31 29 26 24 21 21 22 21 22 27 30 30 30 33 34 31 27 22 20 22 23
5 4 4 3 4 6 10 9 11 10 8 8 8 9 8 5 5 5 4 4 3 4 4 5 9 11 13 16 18 16 14 14 16 17 18 16 15 17 17 13 13 15 15 13 13 13 15 16 18 21 25 28 28 27 25 27 31 32 32 33 33 32 34 36 38 38 34 29 25 20 17 19 19 18 19 21 22 23 26 27 27 27 24 21 20 22
7 1 4 5 3 3 9 11 14 11 9 10 11 12 8 6 7 5 2 3 3 4 3 5 10 11 11 15 17 14 12 14 15 16 16 15 15 16 15 14 14 16 16 15 14 13 13 16 17 20 26 28 27 29 30 31 33 34 35 36 36 36 35 37 40 42 37 29 24 21 18 19 20 20 19 20 22 22 22 23 23 23 23 23 24 24
8 4 5 7 3 2 6 9 13 12 10 11 13 14 11 9 9 3 3 1 5 6 3 2 9 8 8 14 15 10 7 9 10 12 14 14 13 13 13 14 15 14 14 15 16 14 13 16 18 19 23 26 27 31 34 34 34 35 36 36 37 36 35 37 40 41 39 32 27 25 23 23 24 24 24 25 26 24 23 24 22 22 23 24 25 27
5 6 6 7 6 4 7 7 10 11 9 9 10 13 12 11 10 7 6 4 7 7 1 3 8 8 5 10 12 9 6 8 8 9 12 12 11 11 11 12 12 12 12 12 13 12 13 17 19 19 19 21 26 31 32 32 33 34 35 36 36 36 36 38 39 39 40 34 29 28 28 27 26 25 27 28 28 26 26 26 24 24 25 24 24 25
7 11 9 10 9 5 6 6 6 8 8 4 4 12 15 12 11 10 9 8 7 6 2 5 6 9 10 8 8 9 10 11 11 11 12 11 12 12 12 13 12 12 10 7 8 9 12 16 18 19 17 17 23 28 29 30 33 34 35 35 35 36 36 36 36 37 40 38 33 32 31 30 28 30 31 29 29 29 26 26 29 30 29 29 29 25
7 14 13 12 10 6 7 7 4 6 6 1 2 6 13 14 13 12 10 8 4 4 9 9 5 7 11 5 4 7 11 13 11 11 12 12 14 15 15 16 14 12 10 7 9 10 12 15 18 18 17 16 19 23 26 30 32 32 33 34 34 35 36 35 35 36 39 41 38 34 32 31 30 33 32 25 27 30 27 26 31 33 32 33 31 26
2 9 12 11 8 8 9 7 6 6 5 1 4 4 3 6 8 8 7 6 4 5 12 12 9 8 10 5 5 5 7 10 8 7 10 12 15 16 17 15 12 11 9 7 9 10 12 14 16 15 16 17 18 21 26 27 29 29 29 31 32 34 35 34 36 37 38 41 40 35 32 32 31 30 27 22 23 26 26 26 29 31 33 34 34 33
1 2 6 8 7 7 6 4 6 6 4 3 4 3 2 2 1 2 2 2 4 8 13 15 14 10 9 4 6 5 3 4 5 6 9 11 14 16 14 12 11 10 7 6 7 9 11 11 13 14 17 21 20 20 24 25 27 28 28 28 30 33 32 30 34 37 38 40 41 40 37 36 35 29 24 23 23 23 25 27 27 28 30 33 35 37
5 4 4 4 4 6 6 4 3 4 5 4 2 0 1 1 1 2 2 3 6 8 10 12 14 13 12 5 3 3 3 2 6 8 10 12 13 12 10 10 10 8 6 6 6 7 8 8 10 13 17 22 22 20 22 24 26 27 27 26 26 29 28 26 28 33 37 37 40 44 41 38 39 34 27 27 26 23 25 29 28 25 26 28 30 33
7 7 5 2 4 8 8 7 4 4 6 6 4 4 4 4 4 4 4 5 7 6 3 8 12 10 13 12 9 10 8 8 10 9 9 12 12 11 11 11 8 5 6 7 6 6 7 8 9 11 14 18 20 21 22 23 24 25 27 25 24 27 27 26 29 32 35 37 39 42 41 38 39 37 35 33 30 28 29 30 29 26 25 26 28 32
6 6 8 5 3 8 9 9 8 7 10 11 9 8 6 5 5 7 6 4 5 5 1 8 10 5 10 12 12 16 16 15 15 12 11 12 13 15 14 12 8 8 9 8 7 7 9 9 10 11 13 15 19 23 23 23 23 24 26 25 25 29 28 27 31 33 34 37 39 39 38 38 37 36 36 35 34 36 36 35 34 33 30 29 33 37
8 4 10 11 7 9 12 10 6 6 10 11 8 5 5 4 3 4 4 2 5 4 3 6 6 5 6 3 1 4 6 10 12 12 13 14 14 15 13 12 11 11 11 9 8 9 10 11 12 12 13 15 20 23 22 23 23 23 25 26 27 32 31 28 31 34 33 35 37 36 37 39 38 35 33 33 33 34 35 33 33 36 36 34 36 39
8 3 10 13 8 14 16 10 5 6 6 7 5 5 6 5 2 1 1 0 1 2 2 5 4 5 7 6 3 3 2 4 8 10 12 14 13 10 10 11 11 11 11 9 8 10 10 10 11 12 13 16 19 21 22 24 24 24 26 28 29 33 33 29 30 33 33 32 33 34 36 38 37 35 32 30 31 32 31 29 30 35 39 37 35 34
7 4 11 12 8 16 18 11 10 7 4 5 6 7 5 1 2 1 2 1 1 4 3 4 5 6 9 12 10 10 10 10 10 12 13 11 9 8 8 9 10 10 9 9 9 10 11 9 9 12 14 16 17 18 21 23 23 24 25 27 29 30 30 27 27 30 30 29 29 31 33 34 33 34 34 33 32 31 29 28 29 33 35 35 34 32
6 3 8 12 12 15 14 12 12 4 2 4 6 7 3 3 1 1 3 2 2 5 3 4 8 8 8 8 3 7 11 9 10 14 14 11 10 9 8 9 10 10 9 10 10 10 10 9 8 11 14 17 18 19 21 21 19 21 22 23 24 25 27 27 26 26 27 28 28 30 32 33 33 33 36 36 34 29 26 28 32 32 30 31 35 36
5 3 5 11 11 11 8 10 9 2 1 1 3 6 5 1 3 5 4 5 6 7 4 6 11 9 9 10 5 8 12 7 8 10 11 10 10 8 9 10 10 9 8 9 9 8 8 7 8 10 12 15 18 20 22 21 19 20 21 22 23 24 25 26 26 27 29 29 30 32 34 36 37 36 35 35 33 30 28 31 34 34 31 31 33 35
4 4 4 6 6 8 7 7 8 6 3 1 1 4 3 1 2 5 5 4 4 7 5 6 9 7 10 14 12 15 15 7 8 8 8 9 9 8 9 8 7 7 7 7 8 8 8 8 8 10 12 15 18 19 20 21 20 20 21 22 24 25 23 23 26 29 30 30 30 33 35 35 37 37 35 33 32 31 30 32 35 35 34 33 30 29
2 3 3 4 4 5 6 6 9 11 9 5 6 7 5 2 1 1 3 3 3 5 5 6 8 7 9 10 11 16 14 6 7 9 9 10 10 10 8 7 7 7 7 7 7 7 8 9 8 11 16 19 20 21 21 21 22 22 23 24 25 26 25 26 29 30 30 30 30 31 34 34 33 34 33 30 29 30 31 31 34 34 33 32 31 28
3 4 5 4 4 6 6 3 4 7 10 9 8 9 8 6 3 3 5 5 4 4 4 4 7 9 7 3 6 11 10 6 7 9 9 9 10 9 7 7 7 7 7 7 7 7 7 8 8 12 19 22 22 24 24 24 24 24 25 26 26 26 27 29 31 30 30 30 30 32 34 33 30 30 30 28 27 29 30 30 31 31 29 30 30 27
1 2 4 4 4 5 2 2 4 1 7 10 8 8 8 7 6 7 7 5 5 5 4 2 5 11 8 3 4 8 7 6 7 7 8 8 8 8 7 7 7 6 8 8 8 7 6 7 9 12 17 22 23 24 25 25 25 26 27 26 26 27 29 29 29 29 29 29 30 32 32 30 29 29 29 27 27 28 28 28 28 26 27 27 26 26
1 2 5 4 3 0 2 3 4 5 1 7 7 8 8 8 9 9 4 1 4 7 6 5 6 12 9 3 5 8 6 5 5 5 8 7 6 7 7 8 7 7 8 8 7 7 5 6 8 9 11 16 22 24 24 24 25 25 25 25 25 27 28 28 27 26 27 28 30 31 30 31 31 31 31 28 27 28 27 26 26 26 28 27 25 27
4 5 7 7 5 3 3 3 2 2 2 4 6 9 11 12 13 9 3 1 3 7 9 8 7 11 7 1 4 6 2 3 4 4 6 6 5 6 6 7 8 7 8 8 8 8 7 6 6 7 8 14 23 24 22 23 24 23 23 23 24 26 27 26 26 26 26 27 29 30 31 32 33 33 34 31 27 27 26 25 25 27 30 30 28 30
5 4 6 9 8 7 7 7 5 4 4 2 4 8 12 15 15 9 4 4 5 7 9 8 7 12 14 12 13 10 4 6 6 5 5 5 5 7 7 6 7 6 6 8 8 8 8 7 7 7 9 15 23 24 21 22 24 23 22 22 22 24 24 24 24 25 26 27 28 30 31 33 33 34 36 33 28 25 24 23 24 25 30 33 31 31
2 2 5 9 9 8 9 7 2 2 3 4 5 9 12 15 16 11 7 7 6 6 9 11 10 13 20 23 21 15 11 13 12 7 5 6 6 7 7 6 6 6 6 7 7 7 8 8 9 9 9 14 21 22 21 23 24 25 24 23 23 22 22 23 24 25 26 27 28 30 32 33 33 34 35 33 32 28 24 23 25 25 29 34 34 33
3 4 8 11 12 12 11 7 2 2 5 8 8 11 13 14 15 12 9 7 6 7 10 11 11 13 21 26 24 19 15 14 15 12 8 6 7 7 6 7 8 7 6 6 6 7 8 8 8 8 9 16 21 21 21 24 25 25 25 25 26 24 23 24 24 25 26 27 28 31 32 32 31 32 31 29 30 31 27 26 29 29 28 31 35 36
3 7 9 11 13 14 14 10 3 3 6 7 7 11 12 14 16 15 13 12 10 10 10 10 12 15 20 25 26 23 17 14 14 14 11 9 7 6 6 8 9 8 7 7 6 6 7 7 7 7 9 16 22 22 23 25 24 23 24 27 29 27 26 25 24 25 26 27 30 33 32 30 28 29 29 29 30 31 30 30 32 31 30 31 34 35
3 6 7 7 9 13 14 11 6 5 7 8 10 11 8 9 12 14 16 17 17 17 15 14 17 19 18 21 25 24 16 10 12 15 14 11 8 7 8 9 10 8 7 6 6 7 8 8 8 8 8 12 18 23 25 26 25 24 25 28 30 28 27 26 25 26 27 29 33 34 32 29 28 29 30 31 32 32 32 32 32 32 32 33 34 34
3 6 5 4 6 10 11 10 9 10 10 11 12 12 8 7 9 12 14 16 17 19 20 20 20 18 15 18 24 26 18 12 15 20 19 12 6 7 9 9 9 9 10 10 10 10 11 9 9 8 7 10 17 22 25 27 29 27 26 28 30 28 26 24 25 27 29 31 34 33 31 30 29 29 30 31 31 31 31 32 31 31 32 33 34 34
4 3 3 4 6 9 9 11 11 9 9 11 13 13 13 12 12 13 14 14 14 14 16 18 17 14 13 16 21 24 23 21 20 22 19 12 8 9 11 11 12 12 12 12 10 10 11 11 11 9 9 13 19 22 24 28 30 29 28 29 28 25 23 22 23 27 30 32 33 32 31 30 29 29 30 30 30 31 30 29 30 31 32 33 33 33
6 5 3 5 7 9 10 10 9 5 6 8 10 14 18 18 17 16 14 15 16 13 12 13 13 13 13 15 17 22 27 27 23 18 14 12 14 14 12 13 13 11 9 9 8 9 10 12 12 12 14 18 22 25 28 29 29 30 31 28 24 23 22 22 24 25 28 31 32 31 31 30 29 29 30 30 30 29 28 28 30 32 32 32 32 31
5 6 6 5 6 8 7 4 4 6 8 8 10 15 18 17 17 17 16 18 19 17 15 15 16 16 15 15 17 21 26 26 25 22 15 9 11 16 14 12 10 8 7 7 8 9 11 14 16 18 21 23 23 26 28 27 26 29 30 26 25 25 24 23 24 25 26 29 30 31 30 29 29 31 31 30 29 28 28 29 31 32 31 31 29 29
6 7 6 5 5 7 3 3 5 9 9 10 9 10 12 15 18 20 22 24 24 22 21 20 20 20 19 18 20 23 25 27 27 26 19 10 11 15 16 13 10 10 10 9 11 14 17 17 17 20 22 23 22 24 24 22 23 26 28 28 27 27 25 24 24 24 25 28 30 31 30 29 30 31 31 30 28 27 28 30 31 32 31 30 30 30
7 7 6 5 6 6 5 6 7 6 7 9 9 9 10 14 17 19 20 22 22 21 20 20 22 23 24 25 24 23 24 25 22 21 20 18 15 12 11 13 15 14 13 12 13 16 17 16 16 19 22 23 23 22 22 22 22 24 27 28 27 26 25 23 24 25 27 28 30 31 31 30 30 31 31 29 27 27 29 31 32 32 31 29 29 30
7 6 5 5 6 5 6 8 6 6 10 11 10 11 11 10 12 13 13 15 17 18 17 19 22 25 25 25 24 22 22 19 16 18 22 20 14 9 9 13 14 12 11 12 13 14 16 17 19 21 23 23 22 21 21 22 23 24 26 26 24 24 23 22 24 26 28 30 32 32 32 31 30 30 30 28 27 30 32 32 32 32 30 29 29 30
5 5 5 5 6 5 7 9 6 6 9 11 14 13 8 8 10 10 9 11 13 16 18 19 22 24 23 22 21 20 17 12 12 17 16 6 2 3 6 7 7 6 7 10 12 14 15 17 18 20 22 23 22 21 20 21 22 22 23 23 21 20 22 23 25 26 29 32 34 34 33 31 29 30 29 28 30 33 33 32 32 32 31 31 31 32
3 2 4 6 7 7 8 8 7 7 9 12 17 12 3 8 11 8 7 9 14 20 21 19 19 20 19 19 18 15 12 9 12 13 6 5 5 1 1 4 5 5 6 10 11 11 13 16 18 20 21 21 21 21 20 21 21 21 22 23 19 18 21 22 23 26 30 32 34 34 34 31 30 30 30 30 33 34 33 32 31 31 30 31 31 31
5 4 6 9 10 10 10 8 7 7 8 14 18 9 1 6 9 8 8 10 12 14 13 13 17 18 18 17 16 13 11 11 11 7 3 5 4 1 1 4 6 5 7 12 15 14 15 17 16 16 18 20 22 22 22 22 21 20 21 22 21 20 21 22 23 26 29 31 32 33 33 32 31 31 32 33 34 32 30 29 28 28 29 30 29 28
6 6 7 10 11 12 12 10 8 6 8 15 16 5 4 5 5 8 11 8 4 1 2 6 12 11 11 10 8 8 8 7 7 6 5 5 6 5 2 4 7 9 12 16 19 18 17 17 15 15 18 20 20 21 22 21 20 21 22 20 20 21 22 23 24 26 27 28 29 30 31 31 32 32 33 33 32 29 27 26 26 27 28 28 27 26
6 5 6 8 10 10 10 10 9 7 11 15 10 1 6 5 7 10 8 2 2 3 1 2 3 2 2 1 0 3 6 7 7 7 8 7 7 8 8 7 8 11 15 19 21 20 17 17 18 20 23 23 21 20 21 19 19 22 21 20 21 24 25 25 25 26 26 27 27 27 28 30 31 32 32 32 30 28 28 27 27 27 27 27 27 27
7 6 6 8 7 7 8 8 7 8 11 12 6 3 4 9 9 6 2 1 1 2 2 0 1 1 1 1 1 2 5 7 7 7 8 8 7 7 8 7 7 9 13 17 20 20 17 16 17 21 26 26 24 23 20 17 17 19 19 20 23 26 26 26 27 27 26 26 26 26 28 29 31 31 32 31 30 28 28 27 27 27 28 28 28 27
8 8 7 7 7 7 7 8 9 9 6 6 8 7 8 8 4 1 1 1 0 1 1 1 1 1 1 1 2 3 4 5 6 6 6 7 7 6 6 7 8 10 12 16 20 22 19 15 16 21 27 28 26 24 20 16 16 18 20 22 25 25 25 26 27 27 27 27 26 26 27 28 30 31 31 30 29 28 28 27 27 27 28 29 28 27
9 9 6 5 8 9 9 9 8 4 1 2 5 4 3 3 0 2 2 1 2 1 1 1 1 3 1 0 2 3 2 3 4 6 6 7 7 6 7 8 10 13 16 19 23 25 21 17 17 21 25 27 28 25 21 16 15 17 21 23 24 25 25 26 26 27 28 28 27 26 25 25 27 28 29 28 27 27 28 27 27 28 29 28 28 27
4 5 3 2 6 7 10 12 9 3 1 2 3 1 1 3 1 3 3 2 1 2 2 1 1 3 2 2 2 3 3 4 4 5 7 8 9 9 8 9 12 15 17 19 22 24 23 21 19 19 20 24 27 26 23 19 17 18 21 24 25 24 24 23 24 26 27 27 26 26 24 23 24 25 26 26 26 28 28 27 27 29 29 28 28 28
1 4 4 3 4 5 7 10 8 6 5 3 3 2 3 3 2 2 2 2 1 3 4 3 3 4 4 4 4 4 4 4 4 5 5 6 8 9 8 8 10 14 17 18 22 25 24 20 18 17 17 21 25 26 24 23 23 22 22 23 24 23 22 21 21 23 24 24 24 24 22 21 22 22 23 25 25 27 28 27 27 29 29 29 29 30
2 5 6 7 8 7 4 2 1 2 4 3 2 4 3 1 2 2 1 2 3 3 4 4 4 4 4 4 4 4 4 3 4 5 5 5 6 7 7 8 9 13 17 19 22 23 21 18 18 18 18 21 25 25 24 25 27 27 26 25 24 22 21 20 20 21 21 21 22 22 20 20 21 21 22 24 25 27 28 27 27 29 32 33 33 32
3 5 5 4 6 8 7 3 2 5 6 4 4 5 4 0 2 3 1 1 1 3 4 5 5 4 3 3 3 3 4 5 5 5 5 5 6 7 8 10 11 13 15 17 19 19 18 18 19 19 20 23 25 24 24 26 28 28 28 27 25 23 20 20 20 20 18 17 18 19 19 19 20 20 21 22 23 26 28 28 29 30 32 33 34 34
3 5 3 2 4 6 5 3 3 4 5 3 3 3 1 2 3 4 3 2 3 4 5 5 5 4 4 4 3 4 5 6 6 5 6 6 7 8 10 11 12 12 13 14 16 17 17 18 19 20 22 24 25 24 24 26 28 28 27 27 25 23 20 19 18 17 16 14 13 14 16 16 17 18 19 19 19 22 25 27 28 30 30 29 30 32
4 4 5 4 6 3 1 3 3 2 2 2 2 1 2 2 1 1 2 3 3 4 4 4 5 4 4 5 5 5 6 7 6 6 7 7 8 11 13 13 12 13 15 16 16 16 18 19 19 19 21 23 25 25 25 26 27 27 26 25 23 21 19 18 17 15 13 11 10 11 12 14 15 16 16 16 17 19 22 23 25 27 28 28 26 28
Wind_Direction
223 178 188 200 198 197 198 206 207 186 194 186 182 200 207 209 213 206 172 86 165 234 235 234 247 253 260 265 261 258 240 237 257 261 262 260 259 256 254 256 253 253 256 252 251 254 258 257 255 252 247 245 243 243 242 238 236 235 232 227 230 233 224 212 211 213 213 215 218 220 221 222 223 226 229 233 236 236 237 237 236 235 234 232 232 233
267 203 198 206 208 203 201 203 198 178 187 186 190 203 213 223 225 198 188 112 122 241 254 239 256 258 261 267 264 257 246 243 252 255 258 259 260 257 253 255 254 256 256 251 251 250 251 253 252 248 244 241 239 241 241 238 237 238 233 226 229 230 223 217 213 209 211 213 214 217 221 222 222 224 226 231 235 237 239 238 235 234 235 233 232 233
265 225 199 188 198 191 186 186 192 199 195 196 204 211 221 223 223 205 193 138 135 237 263 261 270 265 264 270 267 255 242 245 250 252 257 261 263 262 257 257 258 259 257 252 252 244 237 242 245 243 241 242 242 242 242 241 240 237 232 227 226 224 223 223 219 214 214 215 215 215 219 223 225 228 229 232 235 237 240 240 238 236 235 234 232 232
233 246 182 91 45 158 166 176 192 202 205 209 207 218 228 186 190 229 195 149 172 236 283 291 281 273 267 270 269 256 235 237 247 249 255 257 258 261 262 264 263 261 263 260 255 245 237 234 233 234 238 242 243 242 239 238 238 234 232 230 228 225 225 226 225 223 220 219 219 216 218 224 229 233 234 234 235 235 237 238 237 235 233 232 232 231
193 211 137 124 46 141 166 181 194 203 211 216 216 224 229 181 199 238 127 142 205 218 251 281 280 272 251 249 260 257 223 222 239 245 252 253 252 259 264 264 260 257 260 261 258 252 242 238 232 230 238 241 240 240 240 238 238 235 233 234 233 230 227 226 228 228 223 219 217 215 219 226 229 233 232 230 230 228 229 231 230 230 230 230 233 235
189 172 131 133 107 182 180 183 197 206 210 218 221 223 227 209 206 190 117 201 260 238 197 229 277 276 229 227 244 251 214 211 231 241 250 256 257 259 262 260 255 251 249 248 251 253 250 251 247 239 238 237 236 241 243 242 241 239 237 237 235 231 228 228 230 228 224 218 212 210 210 215 219 221 222 221 221 219 220 225 225 224 226 227 232 234
178 158 147 147 142 184 203 200 201 201 212 228 211 204 218 219 199 171 165 211 255 261 173 163 262 277 245 231 237 237 230 224 226 239 249 255 258 256 257 260 258 252 246 238 242 246 249 255 255 250 241 234 237 243 245 244 243 242 240 238 236 233 231 230 229 227 223 217 212 210 209 211 211 213 219 220 220 221 222 225 224 223 224 225 228 227
154 159 166 167 156 162 205 216 204 195 212 242 177 184 202 209 196 185 194 219 244 273 266 197 240 277 271 254 237 237 250 247 231 236 246 249 256 257 255 258 256 254 252 243 245 242 243 249 252 254 249 240 244 247 246 244 244 243 242 239 237 235 234 231 229 226 224 219 215 214 214 214 214 218 223 223 223 224 222 223 226 227 227 229 230 224
152 168 174 170 165 171 200 207 186 190 212 273 17 206 204 201 199 196 207 226 238 275 258 227 197 260 267 245 183 217 247 253 235 229 243 249 256 259 257 256 255 259 262 256 256 251 245 247 251 256 259 255 252 251 250 249 248 245 242 240 237 236 235 232 229 227 225 223 220 217 217 218 220 224 226 222 224 225 221 222 227 230 230 232 233 229
162 180 178 172 184 201 204 196 170 185 210 105 25 329 230 191 193 194 207 215 196 228 250 235 196 232 271 246 184 192 233 254 240 217 237 247 250 255 257 259 262 267 269 256 256 256 251 254 258 264 268 265 259 257 256 254 250 245 242 239 237 236 234 232 231 229 227 226 223 220 219 221 223 224 224 219 221 222 219 222 226 228 230 232 234 235
135 149 178 184 201 206 194 178 170 178 172 98 54 0 16 83 130 158 161 172 199 228 245 233 203 217 268 253 195 201 207 253 261 234 234 240 246 253 259 267 270 269 270 266 264 263 259 262 266 270 271 268 265 262 259 254 249 245 241 237 236 237 234 230 230 229 228 227 224 223 222 222 224 223 222 221 220 218 218 223 225 225 228 231 234 236
141 131 174 194 188 169 147 154 169 147 150 133 84 172 208 132 113 122 124 164 206 231 244 224 195 206 243 241 176 215 178 197 256 251 245 246 249 255 259 262 263 264 274 274 270 271 268 264 262 259 263 268 268 264 260 255 249 246 242 236 234 236 232 226 227 229 229 226 225 226 225 224 226 223 220 223 223 220 220 224 225 223 225 227 229 233
161 168 172 134 163 168 156 157 149 129 165 178 174 197 215 202 181 184 187 186 211 245 249 178 168 194 244 253 247 244 231 226 239 239 247 255 255 257 258 259 265 275 278 269 262 269 272 264 257 254 259 268 269 266 263 259 253 248 243 236 232 235 231 226 228 230 229 227 227 228 226 225 227 225 223 224 224 224 225 227 225 222 221 222 225 230
165 178 165 147 178 186 175 167 166 175 186 189 187 195 206 204 201 203 198 178 207 243 211 154 160 197 263 268 251 238 236 239 240 236 236 243 249 255 263 272 287 289 279 273 266 265 266 264 262 259 259 263 267 268 266 262 256 250 244 237 233 238 235 227 229 231 228 228 229 228 227 227 228 226 225 225 226 227 228 228 227 226 225 225 229 232
174 180 171 177 179 179 192 200 182 157 176 192 192 188 207 222 230 215 203 204 207 205 165 167 171 199 236 261 142 208 235 245 247 247 242 241 246 254 266 278 284 280 276 276 273 266 261 262 265 265 260 259 264 268 265 260 256 249 245 239 235 240 238 229 230 232 229 228 229 227 228 229 228 228 228 228 229 229 228 226 226 228 230 230 233 236
198 212 175 177 165 170 190 210 184 130 157 189 174 184 221 222 213 281 355 49 254 249 199 197 214 228 240 267 264 196 202 227 241 249 245 245 249 253 266 273 273 274 274 276 278 275 266 257 258 263 264 263 266 267 265 262 257 250 247 243 239 242 241 232 230 233 231 229 229 227 228 229 228 228 228 228 229 230 229 227 227 231 234 234 234 236
206 196 164 164 163 181 189 190 186 175 159 166 172 196 219 164 146 243 283 75 8 283 235 178 223 253 270 278 259 231 229 219 223 240 243 245 251 251 259 265 266 269 271 273 273 274 273 263 258 263 266 268 269 268 267 266 262 257 252 248 245 244 242 235 231 233 232 229 229 229 230 229 228 228 229 230 231 232 231 230 232 235 236 236 235 234
197 156 155 169 179 190 191 185 189 204 103 153 189 189 132 56 112 179 268 246 223 258 243 183 224 243 256 265 229 213 233 215 214 243 252 253 251 249 252 255 260 263 265 272 270 268 272 269 267 269 270 274 276 275 274 272 269 265 259 254 250 247 244 241 236 234 232 230 229 231 231 231 230 230 232 233 233 234 232 231 234 235 235 235 236 236
188 170 176 190 187 175 177 190 194 216 337 188 200 168 137 166 195 158 208 240 227 240 252 220 229 235 240 250 246 241 243 202 188 235 252 254 251 250 254 254 260 266 265 270 271 269 271 272 276 278 279 284 284 282 282 280 276 271 266 259 254 251 250 247 243 239 236 232 231 234 235 234 234 234 233 233 233 232 231 232 235 235 234 234 236 237
182 202 197 189 178 159 163 198 199 190 204 270 196 176 163 235 210 173 190 221 225 233 249 240 230 223 232 242 244 252 254 213 185 221 240 251 255 252 257 260 265 271 267 268 272 274 281 284 284 286 289 292 290 288 286 284 281 278 274 266 257 253 251 246 243 241 239 235 232 235 237 236 236 235 233 233 232 231 232 234 235 235 234 234 234 235
155 222 206 147 140 170 181 202 203 195 190 183 188 194 192 181 171 195 195 201 227 226 234 244 244 239 237 235 233 246 257 230 198 226 236 244 255 257 266 271 266 267 266 267 273 279 289 291 290 292 295 295 293 291 288 285 284 281 276 268 259 252 248 246 244 241 239 237 233 234 237 236 234 234 233 233 234 234 235 236 236 236 236 236 234 233
157 199 197 156 157 197 202 191 197 201 193 193 199 198 195 185 171 206 204 197 214 219 222 241 257 260 246 204 224 244 256 245 222 231 235 237 249 256 262 262 259 267 273 277 283 285 289 295 297 300 299 298 295 293 293 291 286 280 273 267 259 250 247 247 245 242 240 238 236 236 237 235 232 232 231 230 232 235 234 235 236 235 235 234 232 231
100 167 177 173 186 196 196 59 42 59 202 213 221 209 204 197 192 214 212 194 200 217 249 267 269 273 263 179 215 243 246 243 226 224 234 236 243 249 255 263 266 274 277 280 285 284 287 293 296 297 297 298 297 294 295 294 288 282 275 267 259 252 249 248 246 244 242 239 239 239 238 235 233 231 230 228 231 233 233 234 234 232 233 233 231 229
93 163 178 189 199 160 9 359 14 19 223 219 222 217 216 206 205 222 228 194 205 210 228 234 243 267 268 195 240 260 251 242 225 225 245 244 242 252 260 270 277 277 279 282 284 283 287 288 288 291 293 296 297 297 297 295 292 288 281 271 263 258 254 251 249 247 244 241 241 241 238 236 235 233 231 229 230 232 232 233 233 232 234 234 233 232
181 182 191 200 202 206 237 251 288 309 240 223 217 214 216 213 216 232 259 313 240 209 215 227 239 258 264 193 261 270 248 227 209 207 251 258 253 261 264 269 274 274 277 285 289 293 297 294 290 291 293 295 298 300 300 297 295 291 284 276 270 265 261 256 252 248 245 243 242 240 238 238 237 235 234 230 229 232 232 232 233 234 234 234 234 234
187 184 197 206 199 196 207 213 214 205 191 196 224 218 217 216 215 222 235 234 230 215 217 226 235 256 268 270 265 261 252 253 237 201 224 249 255 263 262 260 268 273 277 285 291 296 301 300 296 294 287 291 299 301 300 299 297 291 285 280 276 272 266 260 254 249 246 243 242 241 240 239 237 236 235 232 230 231 231 232 232 232 233 233 232 233
172 211 217 220 219 212 210 210 162 93 157 180 206 216 217 218 216 218 226 223 219 220 226 229 232 255 269 269 267 266 265 269 270 252 227 229 238 251 256 256 261 265 270 279 284 291 298 297 296 294 284 288 298 300 298 300 299 292 286 282 279 274 267 261 254 249 246 243 242 242 242 241 239 238 237 235 235 235 233 233 232 232 234 234 233 232
145 216 215 219 232 234 231 228 109 102 223 216 207 212 216 220 220 222 233 236 235 237 237 234 227 242 263 268 270 274 272 276 281 279 271 253 238 239 252 263 265 262 264 270 273 283 291 293 294 292 288 295 299 296 294 296 296 293 290 287 281 272 264 259 252 248 247 243 241 243 243 242 241 241 239 238 239 238 236 237 236 235 236 236 235 234
173 217 211 210 229 239 240 239 163 144 239 235 219 222 219 215 216 221 231 236 237 240 246 249 239 238 251 263 270 274 275 281 287 287 286 278 264 253 255 263 268 268 270 273 278 288 291 289 288 283 287 297 298 296 294 294 294 295 297 296 288 274 264 260 254 249 247 244 245 247 246 244 243 241 241 240 240 240 239 240 239 238 237 238 238 237
199 220 218 209 229 241 243 241 209 198 236 242 237 239 232 220 219 223 231 233 233 236 239 245 249 247 249 262 273 276 277 284 288 285 278 273 275 273 262 261 265 267 274 285 294 296 287 280 280 281 285 289 290 292 294 296 297 296 297 299 295 283 271 263 257 252 249 248 250 252 250 247 246 244 244 243 243 242 242 242 242 242 242 242 241 240
228 217 198 178 232 247 246 245 231 218 227 238 241 242 243 245 241 235 237 237 235 238 237 236 243 250 253 263 272 277 280 277 272 273 271 269 265 254 253 255 255 262 278 286 286 282 279 278 276 275 274 276 281 284 288 293 295 293 292 295 296 290 280 269 260 256 254 254 255 255 252 250 249 248 247 246 244 243 243 242 242 243 244 244 243 242
211 213 158 165 229 244 238 240 241 231 234 245 247 244 238 236 236 233 232 231 232 239 242 239 240 245 248 255 266 275 279 272 265 266 272 279 266 244 248 257 257 263 270 269 268 272 278 282 279 273 275 282 286 285 285 290 293 291 289 292 295 294 287 276 266 261 259 259 258 256 253 251 250 249 248 246 244 243 242 242 242 242 242 242 243 243
186 197 196 190 222 247 241 236 242 244 247 248 239 232 231 230 233 236 237 238 239 243 248 246 244 244 245 248 256 268 274 275 274 271 271 281 281 270 259 256 261 267 265 257 260 269 275 278 278 280 284 287 287 286 286 288 288 288 290 292 294 293 287 280 273 267 264 263 260 257 255 253 251 250 250 247 244 242 241 241 241 240 239 240 240 241
177 194 212 197 218 252 242 196 215 240 247 247 235 229 231 236 240 244 245 243 239 237 239 245 251 254 252 249 251 260 268 273 275 273 268 269 278 277 268 256 256 259 255 258 267 272 274 276 279 283 285 286 287 288 289 290 290 294 296 295 293 291 286 279 275 270 267 266 263 259 256 253 250 250 251 248 243 240 239 239 240 239 238 237 237 237
172 190 202 193 222 254 249 155 218 240 238 243 254 251 245 246 246 245 245 244 241 239 240 245 252 257 256 255 254 255 259 263 267 273 277 262 247 264 276 278 273 263 258 261 266 269 272 273 277 284 287 291 295 296 298 301 302 302 301 298 296 293 288 282 277 274 272 269 266 262 257 253 250 248 249 247 242 238 237 238 239 238 236 234 233 234
162 184 197 196 215 245 255 227 231 263 269 265 272 263 241 238 240 241 246 248 244 242 241 243 248 250 249 250 251 251 256 263 269 275 276 265 253 260 276 277 273 268 265 264 264 268 275 281 288 290 292 297 301 302 305 307 305 300 298 297 297 294 290 286 279 276 275 272 269 264 260 256 252 248 246 243 239 237 236 236 236 236 233 231 230 231
148 170 191 210 211 222 252 247 250 299 294 275 254 235 221 220 227 232 245 254 248 240 236 236 241 244 245 247 250 253 259 267 274 274 271 267 263 254 250 260 271 276 276 276 278 282 287 292 296 297 299 303 307 309 310 310 306 300 296 294 294 293 291 283 275 274 274 274 273 270 265 261 255 249 245 239 234 235 235 234 233 232 229 225 224 224
155 168 168 201 218 219 251 263 262 265 266 257 248 240 214 202 223 231 241 256 259 248 235 229 234 239 243 247 248 252 258 264 268 271 272 273 239 226 240 260 279 288 288 288 291 292 295 301 305 308 310 311 313 316 318 315 312 305 296 292 291 289 284 276 272 274 274 275 276 274 270 265 258 251 246 238 235 236 235 232 231 230 226 222 221 221
191 176 161 201 229 231 235 249 247 239 247 257 263 266 212 191 214 226 239 251 256 251 242 233 235 239 241 245 246 247 252 253 253 261 283 54 70 90 268 285 289 290 290 293 295 294 300 309 313 314 315 314 315 320 323 321 318 308 296 295 295 286 277 271 272 275 276 277 278 275 271 267 261 254 247 241 240 239 235 232 231 229 226 223 222 223
197 196 195 210 228 232 230 237 245 243 251 261 266 277 121 173 192 199 228 246 249 254 251 234 233 239 238 241 246 244 240 244 253 270 6 30 3 15 173 283 302 312 303 303 308 308 307 309 310 310 312 313 316 322 324 322 318 306 297 298 296 287 281 280 281 282 280 280 278 272 268 266 263 257 250 245 244 242 238 235 231 228 225 223 223 224
194 195 201 211 225 229 228 236 246 244 249 257 261 254 119 123 161 202 229 243 236 303 323 227 224 237 243 246 255 257 257 272 297 328 7 4 342 342 331 311 318 317 309 309 313 315 313 312 312 307 306 310 316 321 323 322 314 304 301 301 296 292 294 295 292 289 286 283 279 272 268 265 263 260 256 251 247 243 241 238 232 228 225 221 220 221
188 187 197 210 221 226 227 234 245 252 248 246 250 139 131 179 227 233 236 246 116 117 90 206 187 178 218 219 278 283 301 326 333 338 348 353 348 337 330 335 330 320 320 319 318 318 318 316 316 313 312 317 320 320 322 320 309 303 304 302 299 302 306 304 300 297 292 287 282 276 271 268 265 263 259 254 248 242 241 238 233 229 225 220 218 219
173 172 199 206 205 214 223 224 231 247 244 227 203 123 180 216 240 248 232 58 78 142 150 116 77 112 157 98 61 307 324 335 332 339 341 336 339 333 322 324 321 316 320 319 315 317 318 313 312 311 312 316 320 320 322 319 307 302 301 299 304 310 311 308 305 303 296 290 284 280 275 271 268 264 259 254 247 241 239 236 231 227 224 220 218 218
169 177 201 204 190 195 209 212 219 237 240 194 174 186 211 220 234 266 198 193 51 37 19 23 0 317 284 37 347 329 344 337 327 334 328 318 326 325 313 316 318 315 315 313 311 314 314 307 303 306 309 314 317 319 320 318 308 300 296 300 309 314 311 308 308 305 298 293 287 283 280 276 271 264 258 253 246 240 237 234 229 224 222 219 218 217
190 188 193 198 194 200 214 220 221 235 262 194 193 199 226 247 298 70 74 65 56 6 317 23 355 311 282 200 318 313 304 300 308 315 314 313 315 312 309 314 312 309 310 310 310 312 313 307 302 303 305 309 313 316 317 316 308 296 295 305 313 312 310 309 309 304 299 295 290 285 282 278 272 265 258 253 245 238 234 230 226 222 220 217 216 215
212 185 171 197 199 213 240 243 234 223 218 244 246 210 217 257 242 104 91 64 40 289 267 198 230 270 251 208 236 261 253 258 279 292 304 313 311 310 311 308 304 304 305 306 308 310 310 307 302 299 298 303 309 313 314 315 307 296 297 307 312 311 310 310 306 302 298 295 292 288 283 276 270 264 259 253 245 239 236 231 225 222 220 217 216 215
240 178 191 218 193 194 239 243 233 228 229 242 280 265 225 224 201 130 123 116 144 256 263 245 233 238 226 212 219 237 243 237 247 269 283 291 292 292 291 286 287 289 289 291 298 302 302 300 297 296 296 299 305 309 312 312 309 303 303 308 312 313 310 305 299 297 296 296 294 290 283 274 267 262 258 252 245 239 236 233 228 224 220 217 215 213
171 171 198 224 215 211 239 249 108 272 254 234 257 269 258 204 132 135 173 158 169 226 252 250 239 228 217 216 219 235 253 241 237 263 275 270 265 267 264 257 257 264 270 275 282 288 290 289 291 295 296 297 303 308 309 308 310 311 311 311 314 314 308 300 295 291 291 294 294 290 283 272 264 258 254 251 245 239 235 232 228 226 225 222 218 214
125 167 188 208 219 239 264 276 298 299 287 252 232 251 270 310 121 142 188 203 205 243 250 251 246 228 223 239 224 219 252 259 247 249 256 256 254 250 249 251 253 256 262 269 276 283 286 287 291 295 295 297 303 307 306 305 309 314 315 315 316 315 306 299 295 288 285 289 291 289 283 273 263 257 252 249 246 242 239 236 232 231 233 232 228 223
163 191 164 154 216 238 254 230 223 274 283 254 225 224 201 138 145 156 175 202 218 231 242 258 263 240 230 247 242 230 248 258 252 242 236 240 254 266 272 277 278 277 279 283 289 292 291 291 294 295 295 300 304 306 305 306 308 312 316 317 317 314 305 299 294 286 282 283 282 281 279 272 265 260 254 249 246 243 243 243 240 238 239 240 238 232
203 186 159 204 234 235 193 170 178 212 244 248 251 165 113 122 204 239 246 243 236 233 244 268 280 264 236 233 232 235 252 263 264 261 261 265 271 279 285 289 292 296 300 303 304 300 298 300 301 299 298 303 306 305 304 304 306 311 314 317 317 312 302 295 292 286 282 279 273 271 271 268 266 263 256 250 247 243 242 244 244 242 241 242 242 238
Height
827 829 829 825 822 821 820 817 817 822 822 824 831 834 834 836 835 831 833 837 837 837 836 832 832 829 821 816 814 813 814 817 817 814 811 808 807 806 805 803 801 800 798 797 798 798 800 800 801 801 801 802 802 802 802 802 803 804 805 806 806 808 810 812 813 814 815 816 817 819 819 819 820 821 823 824 825 827 827 829 830 831 832 833 833 834
830 829 823 819 817 817 819 818 820 824 824 825 830 833 834 834 833 831 833 837 838 839 834 830 833 829 821 815 811 811 813 815 813 810 808 804 803 802 800 798 797 796 794 794 795 795 797 797 797 798 798 798 798 797 798 798 798 799 800 801 802 804 806 807 808 809 810 810 812 814 815 816 817 817 818 819 820 822 823 824 826 827 828 829 830 830
837 831 823 822 819 818 821 821 824 828 828 828 829 833 835 832 833 835 834 836 838 839 834 832 833 827 818 811 807 808 811 810 807 804 802 801 800 798 796 794 794 793 792 790 791 791 793 793 793 794 794 794 793 793 794 794 795 795 795 796 798 800 801 802 804 805 805 806 808 810 812 814 815 815 815 815 817 818 819 820 821 823 824 825 826 827
842 833 825 826 824 823 826 826 828 831 832 831 830 834 834 833 837 836 835 838 839 839 837 837 835 826 817 811 803 802 804 803 802 800 798 798 798 795 792 792 791 790 789 787 787 786 788 789 789 790 789 789 789 789 789 790 790 790 790 791 793 794 795 797 799 801 802 804 806 808 810 812 813 813 814 814 815 815 815 816 817 818 819 821 822 823
834 829 824 827 829 828 830 830 830 833 835 833 830 830 832 834 836 833 834 838 837 839 841 840 837 822 811 810 801 793 796 799 797 797 796 795 794 792 790 789 789 787 786 785 784 782 783 784 784 784 784 784 785 784 784 784 785 785 785 786 787 789 790 792 793 796 799 802 804 806 808 810 811 811 811 811 810 810 811 811 812 813 815 816 817 818
826 825 825 829 832 832 834 833 830 830 834 834 830 826 828 831 834 835 836 838 840 841 838 840 841 819 799 802 798 789 794 798 797 797 796 793 790 790 788 785 783 782 781 781 779 779 780 779 779 779 779 780 780 779 779 780 780 781 782 783 783 784 785 787 789 792 795 797 799 801 803 804 805 805 805 803 803 804 805 805 807 808 810 811 812 813
820 823 825 828 832 833 836 836 830 827 833 835 826 823 827 829 833 837 837 841 846 841 836 840 843 824 802 798 794 789 794 796 796 797 794 792 789 787 785 780 778 776 775 776 775 776 778 777 776 775 774 775 775 775 776 777 777 778 779 780 780 781 781 782 784 787 790 793 794 795 796 796 797 797 796 795 797 799 800 801 803 804 805 806 807 808
816 822 825 825 828 834 838 837 831 829 835 835 824 821 827 830 835 837 836 841 840 836 839 838 839 835 817 801 792 790 795 794 793 794 790 789 787 783 781 777 773 771 770 772 773 773 774 773 772 771 770 771 771 771 773 773 774 774 775 776 777 778 778 779 781 782 784 787 789 790 790 790 790 789 789 791 793 794 796 797 798 799 801 802 803 804
813 820 823 824 828 832 834 833 831 831 836 836 830 826 825 827 832 833 836 840 839 844 845 834 837 842 820 799 795 794 794 793 790 790 787 785 783 778 775 772 768 767 766 768 770 770 770 769 769 768 768 768 768 768 769 769 770 770 771 772 773 773 774 775 777 778 779 781 784 785 785 785 784 784 785 788 789 790 792 793 794 795 797 798 799 800
817 817 818 822 828 828 826 828 830 832 835 836 836 835 830 829 832 834 837 840 846 854 845 828 833 839 816 793 795 798 795 790 787 786 784 781 778 774 770 767 765 765 765 765 766 766 766 766 766 767 766 766 765 765 766 766 767 767 768 769 769 769 770 771 772 774 775 777 779 780 780 780 780 781 783 785 785 786 788 789 790 791 792 793 794 795
818 817 818 820 823 822 823 828 829 830 834 834 838 842 841 841 841 841 842 844 851 850 835 822 825 835 824 796 787 791 787 783 782 782 780 777 774 771 767 766 765 764 764 764 765 764 765 765 765 766 764 762 762 762 762 763 763 764 764 765 765 765 767 768 769 770 770 772 773 774 774 774 775 778 780 781 781 782 783 783 785 786 787 788 789 790
819 821 822 819 818 820 825 831 830 830 833 834 839 845 846 848 847 848 849 850 852 841 822 815 818 833 832 802 785 783 778 779 781 778 777 774 772 769 766 765 763 763 763 764 764 763 763 764 763 763 761 759 759 759 759 759 759 760 761 761 762 762 763 765 766 766 767 768 768 768 768 769 770 773 775 776 776 778 778 779 780 782 783 784 785 786
819 820 819 818 818 818 824 832 834 835 836 836 840 846 848 846 844 846 846 844 842 830 816 812 818 829 821 793 783 782 777 777 777 774 774 772 769 767 763 762 760 761 762 762 762 762 761 761 759 759 758 757 756 756 756 756 757 757 757 758 758 758 759 760 761 762 763 764 763 763 764 765 766 767 768 769 771 772 773 774 776 777 778 779 780 780
819 820 819 822 821 817 819 825 830 832 832 834 836 841 844 840 838 837 834 835 833 825 818 815 819 827 811 782 772 773 771 770 768 769 771 769 767 764 760 760 760 760 761 760 760 759 758 757 755 755 755 754 753 752 752 753 753 754 754 754 754 754 754 756 756 757 757 758 758 759 761 762 763 764 764 765 765 766 767 768 770 771 773 774 774 774
813 815 816 817 815 815 816 815 816 818 824 829 827 832 838 834 833 831 827 829 825 819 824 825 824 822 803 779 770 768 767 767 765 765 765 763 763 762 760 761 761 760 758 757 757 756 754 753 752 752 751 751 750 749 749 749 749 750 749 750 750 749 750 751 751 752 752 753 754 755 756 757 758 760 761 761 762 762 762 763 764 766 767 768 769 770
805 803 802 804 804 808 813 811 810 815 826 829 826 833 835 826 828 833 833 832 826 821 824 825 819 804 782 768 767 769 769 769 767 765 763 762 760 761 763 761 760 759 756 755 754 752 751 750 750 750 748 747 747 746 746 746 745 746 745 745 745 744 745 746 747 748 748 749 750 751 752 753 754 756 757 758 758 758 759 760 761 762 763 764 765 767
803 800 797 801 804 805 806 808 808 810 819 825 828 831 825 818 824 836 839 835 836 833 821 816 814 799 781 767 758 760 764 763 764 762 758 759 759 761 763 761 759 757 754 754 752 750 748 746 747 747 746 745 744 744 744 743 743 743 743 743 742 742 742 742 743 744 745 746 747 748 748 750 751 752 753 754 754 755 757 758 759 759 760 761 762 763
794 799 801 802 804 804 801 805 808 807 812 821 826 822 819 822 826 833 839 836 839 838 820 812 811 801 793 777 757 757 762 761 762 760 756 757 758 759 759 757 756 753 752 752 749 748 745 743 744 744 744 743 742 742 740 740 740 740 740 741 740 740 739 740 740 741 742 743 743 744 745 746 747 748 749 750 751 753 754 754 755 756 757 757 758 759
786 796 804 801 801 803 803 807 812 813 814 816 816 811 815 827 828 831 838 833 833 833 818 807 802 795 790 773 758 757 758 758 761 759 756 755 754 755 755 752 751 750 750 749 746 745 742 741 742 742 741 741 739 739 737 737 737 737 737 737 737 737 737 737 738 737 738 739 739 740 740 741 742 743 744 745 747 749 749 749 750 751 752 753 754 755
786 792 800 801 802 803 806 811 813 815 817 816 815 812 813 818 820 821 823 820 822 824 815 804 797 790 775 757 753 754 749 751 757 755 754 753 751 751 750 748 750 749 748 747 744 742 740 739 740 739 739 738 737 736 735 734 734 733 733 733 732 733 734 734 734 733 733 734 734 735 736 737 738 738 740 741 743 744 744 745 746 746 748 749 750 752
789 791 795 802 807 806 807 809 804 803 809 814 815 815 814 814 815 816 814 812 814 817 814 807 797 779 755 742 747 749 745 747 752 752 752 750 748 748 747 747 748 747 745 744 742 741 739 738 738 738 738 736 735 733 732 732 731 730 729 729 728 728 729 729 729 729 729 729 730 731 731 732 733 734 736 737 739 740 740 741 741 742 744 745 746 748
787 789 791 800 807 804 800 799 796 795 799 803 805 805 807 811 814 816 815 810 809 809 805 804 798 771 743 738 743 743 743 745 746 749 750 748 748 747 746 746 745 744 743 742 741 740 739 738 737 737 736 734 733 731 730 729 728 727 725 724 724 724 724 724 724 725 725 726 727 727 727 728 729 730 731 733 735 736 736 737 737 739 741 741 742 744
784 787 791 799 802 800 800 801 802 800 796 796 798 797 799 806 810 811 809 805 806 805 799 801 801 771 739 737 741 740 742 744 744 747 747 747 747 745 745 744 743 743 742 741 741 739 738 738 737 736 734 733 731 728 727 727 725 723 722 721 721 720 720 720 721 722 723 723 723 723 724 725 725 726 728 729 731 731 731 733 733 735 737 737 738 740
784 787 791 797 798 800 805 806 804 803 802 800 799 796 796 801 802 800 798 798 803 803 799 805 806 774 739 734 738 737 741 743 744 747 746 745 745 744 745 744 742 743 741 740 740 738 738 738 736 735 734 731 729 726 725 724 722 721 719 718 718 717 717 718 718 719 720 720 720 720 721 721 721 723 724 725 726 726 727 728 730 732 732 734 735 735
783 786 788 794 800 803 806 806 805 805 805 803 797 793 793 794 795 797 800 803 805 800 796 802 802 773 741 735 739 738 742 746 747 748 747 747 747 745 744 744 742 741 740 739 738 737 736 736 734 734 732 730 727 724 723 722 720 719 717 716 716 715 715 716 716 716 716 716 717 717 717 717 717 718 719 720 721 722 723 724 726 727 727 729 730 731
781 784 784 788 795 799 799 797 794 791 794 798 796 793 792 792 795 799 803 808 808 799 793 797 794 771 745 738 740 739 742 745 745 747 748 748 748 745 743 742 740 739 739 738 738 737 736 734 733 732 730 728 725 723 722 720 718 717 715 714 714 713 713 713 713 714 713 713 714 713 713 713 713 714 714 715 717 718 719 720 721 722 722 723 725 726
785 787 783 782 782 783 782 780 779 780 786 793 796 794 792 791 793 797 800 801 799 795 791 788 785 774 756 742 739 739 740 741 739 740 744 745 746 744 741 740 739 738 738 737 737 737 735 733 732 729 728 726 724 722 721 719 717 716 714 712 712 711 711 711 711 711 710 711 711 710 709 709 710 710 711 712 713 714 716 716 716 717 717 718 719 721
786 787 784 782 779 774 772 774 778 782 783 785 789 792 792 791 792 798 801 796 791 794 793 782 779 780 765 744 738 739 740 740 737 736 738 740 741 740 738 737 736 736 736 736 736 735 733 731 729 727 726 723 721 721 719 718 717 715 712 710 709 709 708 708 708 708 708 708 707 706 705 706 707 708 709 710 710 711 712 712 712 713 714 714 715 716
780 780 777 779 781 777 773 776 782 785 784 782 784 785 786 787 790 794 797 793 791 796 792 781 778 779 765 746 738 737 739 740 736 734 735 736 737 738 737 736 734 733 734 734 733 732 731 729 726 725 723 721 720 719 717 716 714 712 711 708 707 707 706 706 706 705 705 705 704 702 702 703 704 704 705 706 707 707 708 708 709 710 711 711 712 712
779 776 774 779 783 780 776 778 783 788 789 786 784 782 783 786 787 788 787 785 786 788 785 780 778 772 761 750 739 732 735 739 735 732 732 734 737 739 738 736 734 733 733 732 731 730 728 725 723 722 721 720 719 717 715 713 712 710 709 706 704 704 704 705 704 703 703 702 700 699 700 701 701 700 701 702 702 703 704 705 706 707 708 708 709 709
781 775 775 781 785 782 779 779 781 786 789 788 786 784 785 788 789 787 784 780 780 779 776 777 778 770 760 752 741 731 732 737 736 731 728 731 737 738 735 734 733 732 731 730 728 727 724 722 720 719 718 717 716 715 713 711 709 707 706 704 703 702 702 702 702 701 700 699 697 698 698 698 698 697 697 697 698 699 700 701 702 703 704 705 705 706
783 779 778 785 789 783 777 778 781 783 787 791 790 786 786 786 784 781 777 774 774 774 773 775 776 769 759 752 745 735 728 730 732 728 726 728 731 733 731 729 729 728 728 727 725 724 722 720 717 716 715 714 713 712 711 709 707 704 703 702 701 700 700 700 699 698 697 696 696 696 695 695 695 694 694 694 694 695 696 698 699 699 699 700 701 703
781 779 779 785 789 781 774 777 780 785 792 793 786 779 777 775 773 772 770 769 769 769 771 769 764 757 752 751 749 740 728 723 724 724 725 725 725 725 725 724 724 725 725 724 723 722 720 717 714 712 711 710 709 709 708 707 705 702 701 701 700 699 698 697 696 696 694 694 693 692 692 692 693 692 691 690 691 692 693 695 695 694 695 696 698 700
781 779 777 780 783 779 776 779 783 792 795 783 766 762 765 766 768 771 769 765 762 761 759 756 750 748 749 748 747 741 731 722 717 715 718 723 723 720 719 719 721 722 723 722 721 719 718 715 711 709 708 707 706 705 705 705 704 702 701 700 699 696 695 694 693 693 692 691 691 690 689 689 689 689 689 688 688 689 689 690 690 691 691 692 694 696
780 780 778 779 781 778 775 782 794 796 784 765 755 756 760 761 761 762 759 755 753 753 752 752 750 748 747 744 740 734 727 719 713 710 713 719 720 717 716 717 718 718 719 719 718 716 713 711 709 707 705 704 704 704 703 703 703 702 699 697 695 693 692 692 691 690 690 689 689 688 687 685 684 685 685 685 686 685 685 685 686 687 688 689 690 691
774 778 778 778 782 781 778 785 793 783 764 757 759 757 756 756 756 756 755 749 746 748 750 750 748 744 740 737 732 727 722 718 714 711 710 711 713 715 717 716 714 714 715 714 713 711 709 708 708 707 705 703 703 702 702 702 701 699 696 693 691 690 690 690 689 688 688 687 686 686 686 684 682 681 681 682 682 682 681 680 681 682 683 685 685 686
770 774 777 779 780 781 780 779 778 774 767 761 754 747 746 749 749 752 752 744 737 739 742 742 740 736 732 730 727 724 722 722 720 712 703 702 707 712 715 712 710 711 711 710 709 708 707 708 707 706 704 702 702 702 701 700 698 695 692 690 689 688 688 688 687 686 686 685 684 684 683 681 680 679 678 679 679 678 677 676 677 679 680 681 681 681
771 770 774 778 776 776 781 780 780 785 778 756 736 730 736 741 741 744 748 743 733 729 730 730 729 728 726 725 724 723 724 728 726 712 699 699 704 709 710 710 710 710 709 709 708 706 706 705 704 703 702 701 700 700 699 697 695 693 690 687 687 686 685 684 684 685 685 683 682 681 679 678 678 677 677 677 675 673 673 673 674 675 676 677 677 676
777 774 774 778 776 775 781 784 783 781 767 742 726 726 734 737 737 741 750 747 730 718 718 720 722 722 722 721 719 720 725 730 723 708 701 703 706 709 711 710 709 710 709 708 708 706 704 703 702 701 701 699 698 697 696 694 692 690 687 686 685 684 682 681 682 682 681 680 680 679 677 675 674 673 673 673 671 670 670 670 671 673 674 675 674 674
782 780 778 780 777 773 777 779 773 764 751 734 726 729 736 735 734 746 757 745 719 709 712 715 716 717 715 714 715 716 720 720 713 707 708 710 709 711 712 711 710 710 709 707 706 705 704 703 702 700 699 698 697 695 694 692 689 687 685 683 682 681 679 679 678 677 676 676 676 676 674 672 671 670 669 668 668 669 669 669 670 671 672 673 674 675
782 779 778 778 775 773 776 775 766 754 741 729 725 730 737 738 740 749 746 726 711 713 717 713 712 714 712 712 714 714 714 713 711 711 712 712 711 711 711 711 712 711 710 708 706 705 704 703 702 700 698 696 695 694 693 691 688 685 683 682 680 678 677 676 674 672 671 671 671 671 670 670 669 668 667 665 665 667 668 669 669 670 670 672 673 673
776 776 776 775 773 771 769 769 767 753 732 721 726 733 736 738 739 734 721 710 712 719 719 716 714 715 715 716 718 718 717 716 716 716 714 714 714 713 712 711 711 710 710 709 707 706 705 703 701 699 696 694 694 692 690 689 687 684 682 681 679 676 675 673 671 669 668 667 666 666 666 666 666 665 664 664 664 664 664 665 667 668 669 670 670 670
763 769 771 766 762 765 766 768 767 749 722 714 725 736 735 729 723 715 709 712 718 719 719 719 718 717 718 718 719 720 720 719 719 719 718 717 716 715 714 713 711 710 710 708 707 705 705 703 701 698 694 692 691 690 688 687 685 683 682 680 677 674 673 671 669 667 665 663 662 661 661 661 661 661 661 661 661 661 662 662 664 665 666 667 667 667
752 756 758 752 750 756 760 755 741 724 711 711 718 723 723 718 714 712 712 716 720 722 722 721 720 721 721 720 721 722 721 720 720 720 720 719 718 717 716 713 712 711 709 708 706 705 704 703 700 698 695 692 690 688 687 686 684 682 680 678 675 672 670 667 666 664 662 660 658 657 657 657 657 657 658 658 659 659 659 660 661 662 663 664 664 664
735 733 736 736 735 737 735 726 715 711 713 715 713 713 716 717 718 720 719 719 723 726 725 724 723 723 722 722 723 723 722 720 720 720 721 720 718 717 716 715 713 711 708 707 705 704 703 702 700 697 695 692 689 687 686 685 684 681 678 675 673 670 667 664 663 661 659 657 656 654 654 654 654 655 655 656 657 657 656 657 658 659 659 660 660 661
727 727 728 727 726 725 720 712 710 714 716 715 714 717 719 720 720 722 722 723 726 728 729 728 725 723 723 723 723 722 721 720 719 719 719 720 719 718 717 716 714 712 709 708 705 703 703 701 698 697 694 690 688 686 684 683 682 679 676 673 671 668 665 662 660 658 656 655 654 653 652 651 651 652 653 653 654 654 654 655 655 655 656 657 656 656
729 730 728 725 725 725 717 708 708 714 715 715 716 717 717 718 721 722 721 722 725 728 729 728 726 725 725 723 721 721 720 720 720 719 719 721 720 719 718 717 716 713 710 708 705 703 702 700 697 694 692 688 685 683 682 680 678 676 674 671 668 666 663 660 658 655 654 653 653 652 651 649 648 649 649 650 651 651 652 652 653 653 653 652 652 652
725 727 726 725 723 718 711 709 713 716 715 715 717 715 714 716 720 722 721 721 723 726 726 725 726 725 723 721 720 720 719 719 720 718 718 719 719 719 718 717 715 712 710 708 706 704 702 699 695 692 689 686 683 681 680 677 675 673 671 668 666 663 660 657 655 653 651 651 651 650 649 648 646 646 646 647 647 648 648 649 650 649 648 647 647 648
723 724 722 721 720 716 711 712 715 715 712 713 715 715 716 718 720 722 722 722 722 723 723 724 724 723 721 720 720 719 719 718 718 718 718 718 717 717 716 714 712 711 708 706 704 702 699 696 692 689 686 683 680 679 677 674 672 670 668 666 664 661 657 654 652 651 649 647 647 648 647 646 645 644 643 643 644 644 645 645 646 646 645 645 646 646
722 720 719 720 720 716 712 710 712 713 711 710 712 715 718 720 722 722 722 723 723 723 722 722 722 721 721 720 719 719 719 717 716 717 717 715 713 711 709 707 705 704 703 701 699 697 695 692 689 686 683 680 678 676 674 671 669 668 666 664 662 660 657 653 651 649 647 645 643 644 645 644 643 642 641 640 640 640 641 642 644 644 644 645 645 646
716 713 715 715 713 710 709 708 711 713 711 709 711 715 719 721 720 720 721 721 721 721 722 721 720 719 719 718 718 718 716 714 713 713 711 710 708 706 703 701 700 698 696 696 694 691 689 687 685 684 681 678 675 673 671 669 667 666 664 663 662 660 658 655 651 648 645 642 641 640 641 641 641 640 640 639 638 638 638 639 640 641 642 644 645 645